Location: Carbonear
(47.7333°N, 53.2500°W)
Time: 05:03:33
(UTC+00:00)

Oscar 11 - Pass Details

Date: 10 December 2022
Orbit: 611 x 621 km, 97.6° (Epoch: 28 January)

Event Time Altitude Azimuth Distance (km) Brightness Sun altitude
Rises 20:48:37 0° 222° (SW) 2,877 11.8 -10.9°
Maximum altitude 20:53:38 10° 274° (W) 1,952 10.7 -11.6°
Drops below altitude 10° 20:54:24 10° 284° (WNW) 1,979 10.5 -11.8°
Sets 20:58:42 0° 326° (NW) 2,890 10.7 -12.4°
